GFSSW_con_mucape_219.txt.gz
CAPE
4 2 0 0 0 0 0 0 0 0 0 0 0 0 0 0 0 0 0 4 86 862 738 656 885 727 494 453 289 422 30 43 209 345 596 506 565 669 373 315 397 336 85 0 2
3 4 3 2 0 0 0 0 0 0 0 0 0 0 0 0 0 0 0 1088 492 889 589 354 586 620 560 185 276 260 11 4 7 148 391 324 449 381 259 277 398 158 33 0 0
1 1 5 3 2 1 0 0 0 0 0 0 0 0 0 0 0 0 172 1555 1021 1342 233 239 142 248 17 104 149 69 17 4 0 91 250 392 319 388 396 67 418 188 21 0 0
2 2 2 2 1 1 0 0 0 0 0 0 0 0 0 0 0 9 547 1641 1372 879 198 152 118 175 2 11 13 19 0 7 9 51 252 440 400 405 360 326 397 236 56 0 0
1 1 4 2 1 0 0 0 0 0 0 0 0 0 0 0 0 357 1260 1610 524 806 126 109 77 137 12 15 6 24 5 5 50 103 334 242 341 388 517 487 592 373 108 4 0
0 0 0 1 1 1 0 0 0 0 0 0 0 0 0 0 0 154 163 485 165 257 116 75 27 34 33 20 0 7 43 13 9 21 61 62 71 82 82 274 602 484 212 51 0
0 0 0 0 0 0 0 0 0 0 0 0 0 0 0 0 0 0 55 82 91 41 40 38 7 22 40 11 0 0 147 236 56 80 81 84 106 211 144 353 664 600 431 217 9
0 0 1 1 0 0 1 0 0 0 0 0 0 0 0 0 0 0 0 0 0 0 0 0 0 0 0 0 0 0 183 188 265 94 176 134 75 519 427 520 755 787 678 458 77
0 0 4 3 1 0 0 0 0 0 0 0 0 0 0 0 0 0 0 0 0 0 16 0 0 0 0 0 2 1 252 74 40 329 141 91 36 433 714 506 722 927 802 630 210
0 0 0 3 1 0 0 0 0 0 0 0 0 0 0 0 0 0 0 0 0 0 0 0 0 0 0 17 36 57 164 60 1 169 374 107 82 563 729 905 544 957 877 770 385
0 0 0 0 0 0 0 0 0 0 0 0 0 0 0 0 0 0 0 0 0 0 0 0 0 0 3 9 36 19 3 204 81 104 521 230 168 382 576 830 880 788 993 900 619
0 0 0 0 0 0 0 0 0 0 0 0 0 0 0 0 0 0 0 0 0 0 0 0 0 0 4 34 47 8 3 74 47 215 100 177 104 545 694 592 862 904 864 933 835
0 0 0 0 0 0 0 0 0 0 0 0 0 0 0 0 0 0 0 0 0 0 0 0 0 0 13 30 54 19 12 54 58 14 9 55 40 48 459 512 527 877 876 930 841
0 0 0 0 0 0 0 0 0 0 0 0 0 0 0 0 0 0 0 0 0 0 0 0 0 15 8 27 48 27 8 27 32 2 35 3 105 24 128 218 467 734 902 952 960
0 0 0 0 0 0 0 0 0 0 0 0 0 0 0 0 0 0 0 0 0 0 0 0 0 14 15 7 19 17 49 45 26 31 49 38 16 111 122 263 319 573 747 922 1011
0 0 0 0 0 0 0 0 0 0 0 0 0 0 0 0 0 0 0 0 0 0 0 0 0 3 9 21 11 22 46 53 62 63 104 76 110 146 99 69 202 324 690 879 1064
0 0 0 0 0 0 0 0 0 0 0 0 0 0 0 0 0 0 0 0 0 0 0 0 0 0 5 48 15 36 90 109 87 80 78 92 157 158 91 45 123 375 493 567 706
0 0 0 0 0 0 0 0 0 0 0 0 0 0 0 0 0 0 0 0 0 0 0 0 0 0 0 10 27 43 89 106 94 113 110 62 124 151 72 18 0 1 150 230 392
0 0 0 0 0 0 0 0 0 2 0 0 0 0 0 0 0 0 0 0 0 0 0 0 0 0 0 2 19 62 105 42 83 127 187 151 104 116 10 5 3 0 0 12 16
0 0 0 0 0 0 0 0 0 0 0 0 0 1 1 1 0 0 0 0 0 0 0 0 0 0 0 0 0 11 66 82 75 132 150 159 94 156 94 7 3 0 44 8 0
0 0 0 0 0 0 0 7 0 0 0 0 0 3 0 37 11 3 4 0 0 0 0 0 0 0 0 0 0 0 4 87 87 92 121 186 175 105 60 76 30 22 8 0 94
0 37 0 0 0 6 6 2 0 0 0 0 0 0 0 3 0 56 66 15 0 0 0 0 0 0 0 0 0 0 3 16 53 23 74 112 151 76 65 33 0 0 6 0 0
52 9 0 0 9 77 35 0 0 0 0 0 0 0 0 0 34 85 74 0 0 0 10 0 0 0 41 3 0 0 0 0 8 14 72 95 59 23 11 0 0 0 0 1 0
29 151 21 1 0 0 26 31 46 1 0 0 0 0 0 0 9 89 26 0 0 0 0 0 0 0 17 10 0 0 0 0 0 6 1 21 63 38 35 14 2 0 0 0 15
1 17 0 135 89 5 51 49 63 61 2 1 3 0 0 4 13 15 103 0 0 0 0 0 2 10 0 39 9 0 0 0 0 0 2 1 26 30 9 4 43 20 22 201 207
4 15 0 11 7 8 29 238 178 155 99 31 11 39 12 28 68 100 6 0 1 0 0 0 118 67 28 5 0 0 0 0 0 0 0 0 2 9 7 6 8 59 335 553 698
0 0 2 3 3 14 29 3 55 112 160 17 20 30 49 90 17 2 4 0 1 0 0 0 75 58 20 15 0 0 0 0 0 0 0 0 108 367 328 233 292 321 991 1269 1295

GFSSW_con_mucape_222.txt.gz
CAPE
4 3 4 1 0 0 0 0 0 0 0 0 0 0 0 0 0 0 0 4 31 629 581 142 1082 741 381 396 366 408 39 18 186 328 383 452 303 52 283 323 268 285 17 0 0
3 3 2 2 1 2 0 0 0 0 0 0 0 0 0 0 0 0 0 1039 402 641 175 720 686 481 360 338 149 53 78 19 145 100 430 493 412 266 486 379 150 54 0 0 0
4 3 3 2 2 1 2 1 0 0 0 0 0 0 0 0 0 0 553 995 704 587 149 163 123 116 136 97 200 28 101 7 30 43 340 506 515 339 373 352 137 8 0 0 0
4 4 0 2 1 0 0 0 0 0 0 0 0 0 0 0 0 0 623 1122 895 129 374 198 47 47 101 26 182 51 10 0 16 287 353 417 650 535 281 245 196 23 0 0 0
2 0 0 1 1 0 0 0 0 0 0 0 0 0 0 0 0 29 679 1185 66 112 295 105 34 45 45 36 28 50 7 2 16 136 415 282 598 432 265 313 337 39 0 0 0
1 3 2 1 1 1 1 1 0 0 0 0 0 0 0 0 0 3 3 26 28 47 152 67 32 17 1 36 16 53 48 3 44 367 53 185 246 500 601 459 452 136 0 0 0
0 4 3 2 0 2 2 1 0 0 0 0 0 0 0 0 0 0 0 0 1 44 61 41 20 16 16 21 13 70 78 51 19 300 247 179 117 16 99 608 478 321 69 1 2
1 0 3 4 4 2 0 0 0 0 0 0 0 0 0 0 0 0 0 0 0 19 0 19 20 0 0 3 1 1 297 129 131 81 84 100 198 82 108 179 530 406 233 21 2
0 0 0 0 3 2 0 0 0 0 0 0 0 0 0 0 0 0 0 0 0 0 0 0 0 0 0 0 0 12 36 307 78 72 50 58 68 70 196 307 636 574 468 283 12
0 0 0 0 0 0 0 0 0 0 0 0 0 0 0 0 0 0 0 0 0 0 0 0 0 0 0 0 3 11 93 275 52 17 33 69 11 3 309 414 411 559 777 641 109
0 0 0 0 0 0 0 0 0 0 0 0 0 0 0 0 0 0 0 0 0 0 0 0 0 0 0 0 0 6 34 133 46 11 48 30 73 23 351 534 672 503 675 779 333
0 0 0 0 0 0 0 0 0 0 0 0 0 0 0 0 0 0 0 0 0 0 0 2 1 0 0 0 0 7 32 153 155 53 61 139 135 185 256 445 583 793 790 487 449
0 0 0 0 0 0 0 0 0 0 0 0 0 0 0 0 0 0 0 0 0 0 0 0 0 0 0 0 3 16 39 127 84 83 69 224 362 180 481 447 633 627 917 807 590
0 0 0 0 0 0 0 0 0 0 0 0 0 0 0 0 0 0 0 0 0 0 0 0 0 0 0 0 2 17 47 10 117 29 89 29 77 820 745 409 420 683 836 936 862
0 0 0 0 0 0 0 0 0 0 0 0 0 0 0 0 0 0 0 0 0 0 0 0 0 0 0 0 0 11 32 4 11 50 58 49 45 57 276 542 361 376 926 886 1073
0 0 0 0 0 0 0 0 0 0 0 0 0 0 0 0 0 0 0 0 0 0 0 0 0 0 0 3 0 3 11 33 40 63 81 66 80 113 297 317 461 413 703 930 1030
0 0 0 0 0 0 0 0 0 0 0 0 0 0 0 0 0 0 0 0 0 0 0 0 0 0 0 0 23 3 40 62 106 92 55 78 66 118 45 7 116 565 649 792 1265
0 0 0 0 0 0 0 0 0 0 0 0 0 0 0 0 0 0 0 0 0 0 0 0 0 0 0 0 4 32 49 91 88 87 62 34 38 124 88 53 165 342 461 719 641
0 0 0 0 0 0 0 0 0 0 1 0 0 0 0 0 0 0 0 0 0 0 0 0 0 0 0 0 1 1 113 33 69 113 100 59 47 99 151 18 20 214 505 302 537
0 0 0 0 0 0 0 0 0 6 0 0 0 0 0 0 0 0 0 0 0 0 0 0 0 0 0 0 0 0 4 50 83 123 53 61 96 17 166 116 99 30 39 136 83
0 71 0 0 0 0 0 0 28 3 0 0 0 0 0 0 11 6 0 0 0 0 0 0 0 0 0 0 0 0 5 28 77 124 85 105 99 89 65 0 73 66 148 26 20
98 218 35 0 0 0 79 26 1 0 0 0 0 0 0 0 2 8 3 1 7 0 0 0 0 0 0 0 0 0 9 16 83 90 69 110 76 34 11 6 87 94 167 0 0
271 81 11 0 10 15 17 115 7 0 0 0 0 0 0 0 0 24 49 21 0 0 3 0 0 0 0 0 0 0 3 0 2 71 213 201 23 0 0 0 24 70 35 117 85
206 222 109 57 45 17 13 19 20 42 0 0 0 3 0 0 0 18 47 13 0 2 74 0 0 0 0 0 0 7 0 0 0 15 124 29 18 276 27 11 2 41 172 128 396
241 54 2 76 12 5 0 9 54 182 125 109 9 0 4 3 1 28 95 16 0 0 0 0 0 0 0 0 1 4 0 0 0 0 16 33 10 45 15 160 48 170 266 572 979
0 0 0 92 0 0 55 245 218 205 181 182 136 40 66 38 129 181 109 163 0 6 0 0 0 0 0 0 0 0 11 0 0 0 0 1 7 1095 793 37 8 564 353 890 1383
0 0 19 20 20 0 9 0 5 19 88 269 46 60 90 43 19 33 39 17 65 119 33 16 4 88 11 3 3 0 0 2 0 1 18 40 961 1062 1164 1188 1744 1467 1303 1194 1083

GFSSW_con_mucape_225.txt.gz
CAPE
3 0 0 0 0 0 0 0 0 0 0 0 0 0 0 0 0 0 0 3 46 891 519 63 435 685 801 403 353 223 194 20 39 355 331 240 51 29 146 125 118 150 51 0 0
5 3 2 0 0 0 0 0 0 0 0 0 0 0 0 0 0 0 0 535 616 795 106 180 642 858 1002 310 187 99 109 11 46 227 320 251 79 165 263 193 152 50 0 0 0
4 3 2 2 1 0 1 0 0 0 0 0 0 0 0 0 0 0 943 1059 327 698 45 345 747 355 182 281 197 89 92 63 49 231 211 401 149 157 346 235 1 2 0 0 0
4 3 2 1 1 1 0 0 0 0 0 0 0 0 0 0 0 0 1101 856 561 230 0 145 231 40 16 80 177 60 74 8 70 232 218 367 275 283 202 179 69 8 0 0 0
3 2 0 0 1 1 0 0 0 0 0 0 0 0 0 0 0 20 1259 889 215 95 0 143 292 17 18 3 141 93 40 47 255 249 178 478 300 417 321 177 172 3 0 0 0
3 3 3 0 0 0 1 2 1 0 0 0 0 0 0 0 0 0 0 20 0 0 0 10 77 11 16 15 19 47 42 50 240 156 56 234 183 216 403 132 10 40 0 0 0
4 6 5 2 0 0 0 0 0 0 0 0 0 0 0 0 0 0 0 0 0 0 0 6 69 22 10 0 18 43 56 83 77 66 41 24 18 171 127 127 88 68 0 0 0
6 0 2 3 2 1 0 0 0 0 0 0 0 0 0 0 0 0 0 0 0 0 0 1 0 4 0 0 2 5 157 82 95 263 61 31 41 1 16 224 165 14 0 0 0
6 0 0 0 0 0 0 0 0 0 0 0 0 0 0 0 0 0 0 0 0 0 0 0 15 0 0 0 0 0 64 305 147 108 123 7 10 2 6 100 259 182 22 0 1
2 0 0 0 0 0 0 0 0 0 0 0 0 0 0 0 0 0 0 0 0 0 0 0 0 0 0 0 0 0 262 246 120 69 165 0 2 0 15 46 296 299 177 20 5
0 0 0 0 0 0 0 0 0 0 0 0 0 0 0 0 0 0 0 0 0 0 0 0 0 0 0 0 0 0 1 216 92 161 56 13 0 0 29 200 193 380 383 270 97
0 0 0 0 0 0 0 0 0 0 0 0 0 0 0 0 0 0 0 0 0 0 0 0 0 0 0 0 0 0 1 189 141 117 10 3 26 45 46 142 214 329 455 368 254
0 0 0 0 0 0 0 0 0 0 0 0 0 0 0 0 0 0 0 0 0 0 0 0 0 0 0 0 0 0 0 144 180 190 76 62 26 75 32 136 391 318 506 563 463
0 0 0 0 0 0 0 0 0 0 0 0 0 0 0 0 0 0 0 0 0 0 0 0 0 0 0 0 0 0 0 27 72 57 63 109 77 176 59 95 617 198 523 546 579
0 0 0 0 0 0 0 0 0 0 0 0 0 0 0 0 0 0 0 0 0 0 0 0 0 0 0 0 0 0 0 0 65 7 0 144 36 202 191 105 195 413 730 610 528
0 0 0 0 0 0 0 0 0 0 0 0 0 0 0 0 0 0 0 0 0 0 0 0 0 0 0 0 0 0 6 0 7 16 7 1 52 16 223 362 318 410 731 850 755
0 0 0 0 0 0 0 0 0 0 0 0 0 0 0 0 0 0 0 0 0 0 0 0 0 0 0 0 0 0 10 3 4 13 4 30 10 152 361 456 147 258 977 1012 952
0 0 0 0 0 0 0 0 0 0 0 0 0 0 0 0 0 0 0 0 0 0 0 0 0 0 0 0 0 0 0 3 15 6 34 34 15 62 163 117 109 194 409 1015 1009
0 0 0 0 0 0 0 0 0 0 0 0 0 0 0 0 0 0 0 0 0 0 0 0 0 0 0 0 0 0 0 0 8 3 53 44 35 181 146 79 267 396 122 815 983
0 0 0 0 0 0 0 0 0 0 0 0 0 0 0 0 0 0 0 0 0 0 0 0 0 0 0 0 0 0 0 4 17 17 34 33 20 63 95 71 65 257 430 943 662
4 121 3 0 0 0 0 0 1 9 0 0 0 0 0 0 0 0 0 0 0 0 0 0 0 0 0 0 0 0 0 0 0 3 0 5 1 3 22 14 17 98 475 601 337
40 231 91 0 0 0 0 17 11 0 0 0 0 0 0 0 0 0 0 0 0 0 0 0 0 0 0 0 0 0 0 0 0 0 0 5 5 73 1 0 2 2 2 48 298
6 309 48 0 5 4 19 0 0 2 0 0 0 0 0 0 0 0 15 7 1 0 0 0 0 0 0 0 0 0 0 0 0 7 0 3 14 34 34 2 0 28 115 337 460
13 268 110 36 3 2 0 0 0 19 18 1 0 0 0 0 0 0 6 0 0 0 149 0 0 0 0 0 0 0 0 0 0 2 0 0 22 80 19 0 0 12 211 1219 1308
22 4 12 0 0 2 0 0 8 24 1 18 42 2 0 0 0 0 6 15 4 0 0 0 0 0 0 0 0 0 0 0 0 0 0 0 219 603 25 1 252 519 1298 1217 1207
0 0 0 8 7 0 0 0 13 7 0 20 48 10 5 0 0 0 0 0 15 4 0 0 0 0 0 0 0 0 0 0 0 0 0 35 947 806 925 1418 1147 1093 1097 1019 978
0 0 0 0 7 0 0 0 0 0 0 2 26 37 16 5 0 0 0 0 8 8 2 0 2 1 0 4 10 2 0 0 0 349 408 543 1009 733 1069 1119 1012 924 905 867 772

GFSSW_con_mucape_228.txt.gz
CAPE
4 1 0 0 0 0 0 0 0 0 0 0 0 0 0 0 0 0 0 0 20 780 376 341 117 268 386 567 396 400 151 165 81 227 160 56 87 71 29 54 46 70 0 0 29
3 2 2 0 0 0 0 0 0 0 0 0 0 0 0 0 0 0 0 311 562 848 80 7 272 417 521 692 400 133 88 0 47 72 131 207 90 94 44 87 102 78 0 0 60
0 0 0 1 1 1 0 0 0 0 0 0 0 0 0 0 0 0 325 738 771 770 110 76 224 646 795 404 224 71 37 46 55 1 66 250 367 209 79 99 84 10 0 0 0
3 0 0 0 0 1 1 0 0 0 0 0 0 0 0 0 0 0 868 924 618 292 97 16 101 215 115 130 185 87 40 49 66 116 168 318 381 344 199 76 32 2 0 0 0
0 0 0 0 0 0 0 1 0 0 0 0 0 0 0 0 0 0 1101 810 130 133 58 12 112 153 94 23 171 99 43 44 87 168 172 183 154 182 214 71 72 41 0 0 0
1 1 0 0 0 0 0 0 0 0 0 0 0 0 0 0 0 0 1 133 0 0 0 18 48 87 66 25 42 102 127 205 164 105 143 311 186 70 196 79 99 43 6 0 0
4 4 3 0 0 0 0 0 0 0 0 0 0 0 0 0 0 0 0 0 0 0 0 2 32 59 6 7 1 71 181 208 134 101 45 74 95 199 98 19 64 61 17 0 0
0 0 0 0 0 0 0 0 0 0 0 0 0 0 0 0 0 0 0 0 0 0 0 0 36 35 8 0 0 1 66 39 231 97 90 82 52 18 64 120 68 67 4 0 0
0 0 0 0 0 0 0 0 0 0 0 0 0 0 0 0 0 0 0 0 0 0 0 0 12 3 6 0 0 1 3 72 108 168 89 50 73 0 40 103 39 40 0 0 0
0 0 0 0 0 0 0 0 0 0 0 0 0 0 0 0 0 0 0 0 0 0 0 0 0 0 0 0 0 83 171 111 99 196 57 16 0 8 3 6 111 85 52 5 0
0 0 0 0 0 0 0 0 0 0 0 0 0 0 0 0 0 0 0 0 0 0 0 0 0 0 0 6 2 0 0 72 72 211 32 6 0 0 0 0 106 171 30 38 1
0 0 0 0 0 0 0 0 0 0 0 0 0 0 0 0 0 0 0 0 0 0 0 0 0 0 0 0 5 0 1 89 126 143 32 9 2 0 17 75 226 296 258 106 27
0 0 0 0 0 0 0 0 0 0 0 0 0 0 0 0 0 0 0 0 0 0 0 0 0 0 0 0 0 2 0 37 85 151 108 46 2 5 14 236 307 225 267 224 73
0 0 0 0 0 0 0 0 0 0 0 0 0 0 0 0 0 0 0 0 0 0 0 0 0 0 0 0 0 0 3 7 145 63 24 78 12 64 4 117 100 166 238 348 242
0 0 0 0 0 0 0 0 0 0 0 0 0 0 0 0 0 0 0 0 0 0 0 0 0 0 0 0 0 0 12 3 157 56 55 80 39 0 80 10 7 34 242 363 418
0 0 0 0 0 0 0 0 0 0 0 0 0 0 0 0 0 0 0 0 0 0 0 0 0 0 0 0 0 0 16 3 43 10 6 0 13 0 64 32 83 82 185 293 503
0 0 0 0 0 0 0 0 0 0 0 0 0 0 0 0 0 0 0 0 0 0 0 0 0 0 0 0 0 0 8 5 11 38 0 0 1 0 37 58 129 178 344 414 546
0 0 0 0 0 0 0 0 0 0 0 0 0 0 0 0 0 0 0 0 0 0 0 0 0 0 0 0 0 0 7 8 0 0 0 2 0 0 3 72 201 274 451 536 605
0 0 0 0 0 0 0 0 0 0 0 0 0 0 0 0 0 0 0 0 0 0 0 0 0 0 0 0 0 0 0 0 0 0 0 0 9 90 78 202 350 288 191 452 714
1 10 0 0 0 0 0 0 0 0 0 0 0 0 0 0 0 0 0 0 0 0 0 0 0 0 0 0 0 0 0 0 0 0 0 0 8 72 172 210 115 40 219 672 849
39 65 16 11 5 0 0 0 0 0 0 0 0 0 0 0 0 0 0 0 0 0 0 0 0 0 0 0 0 0 0 0 0 0 0 0 7 69 117 63 72 202 101 783 1022
13 236 12 0 0 0 0 0 0 0 0 0 0 0 0 0 0 0 0 0 0 0 0 0 0 0 0 0 0 0 0 0 0 0 0 0 19 9 118 29 2 136 88 331 547
6 146 56 0 1 0 0 1 3 0 0 0 0 0 0 0 0 0 0 0 0 0 0 0 0 0 0 0 0 0 0 1 0 0 0 0 0 35 48 158 442 649 845 942 853
0 4 8 0 0 0 0 0 0 0 0 0 0 0 0 0 0 0 0 0 0 0 60 0 0 0 0 0 0 0 0 0 14 2 0 0 1 73 93 72 321 971 824 888 1383
0 0 0 0 0 0 0 0 0 0 0 0 0 0 0 0 0 0 0 0 0 0 0 0 0 0 0 0 0 0 0 0 8 10 0 9 12 468 96 547 792 882 747 642 1125
0 0 0 0 0 0 0 0 0 0 0 0 0 0 0 0 0 0 0 0 0 0 0 0 0 0 0 0 0 0 1 0 2 1 178 610 1177 1121 1088 934 749 692 622 588 738
0 0 0 0 0 0 0 0 0 0 0 0 0 0 0 0 0 0 0 0 0 5 1 0 0 0 0 0 0 0 354 384 309 335 431 741 1148 1065 858 839 655 697 644 466 438

GFSSW_con_mucape_234.txt.gz
CAPE
4 3 3 0 0 0 0 0 0 0 0 0 0 0 0 0 0 0 0 0 131 1052 1166 99 236 347 445 491 575 39 30 37 78 103 306 310 44 41 36 2 50 23 46 59 242
0 0 0 2 1 0 0 0 0 0 0 0 0 0 0 0 0 0 0 18 723 1001 187 70 149 272 249 509 656 255 0 9 55 97 257 324 203 292 28 7 40 46 116 123 132
0 0 0 0 0 0 1 0 0 0 0 0 0 0 0 0 0 0 5 909 929 385 117 86 208 365 479 735 673 311 2 42 95 85 482 229 182 97 56 36 16 18 110 88 62
0 0 0 0 0 0 0 0 0 0 0 0 0 0 0 0 0 9 829 952 920 93 26 100 279 451 713 410 418 68 33 36 52 265 278 196 192 204 235 186 39 18 71 89 73
0 0 0 0 0 0 0 0 0 0 0 0 0 0 0 0 0 608 1076 1013 599 103 0 76 340 381 123 51 90 181 92 39 200 231 302 92 103 151 99 75 36 38 67 69 62
1 2 2 2 2 1 1 0 0 0 0 0 0 0 0 0 0 5 360 290 117 41 0 1 50 114 120 3 55 66 68 259 366 280 110 40 30 67 59 50 15 27 28 48 59
4 6 5 2 0 0 1 0 0 0 0 0 0 0 0 0 0 0 0 0 10 19 0 0 0 53 40 100 124 137 161 335 374 171 157 79 18 2 0 0 9 0 1 1 35
8 6 2 0 0 0 0 0 0 0 0 0 0 0 0 0 0 0 0 0 0 0 0 0 3 15 33 140 230 97 178 111 153 135 121 104 0 38 26 1 19 19 11 0 2
6 3 0 0 0 1 0 0 0 0 0 0 0 0 0 0 0 0 0 0 0 0 0 18 26 16 43 324 26 56 14 78 85 80 175 145 0 137 2 61 58 10 10 0 0
0 0 0 0 0 0 0 0 0 0 0 0 0 0 0 0 0 0 0 0 0 0 0 0 19 9 16 38 7 13 51 45 31 58 54 104 17 24 69 150 59 4 0 5 0
0 0 0 0 0 0 0 0 0 0 0 0 0 0 0 0 0 0 0 0 0 0 0 0 0 0 24 27 28 48 8 12 18 52 42 7 0 3 83 215 84 17 18 7 0
0 0 0 0 0 0 0 0 0 0 0 0 0 0 0 0 0 0 0 0 0 0 0 0 0 0 21 49 36 24 12 23 96 118 36 0 0 0 92 132 123 9 13 29 0
0 0 0 0 0 0 0 0 0 0 0 0 0 0 0 0 0 0 0 0 0 0 0 0 0 0 8 46 44 39 4 7 13 98 23 6 0 0 4 180 123 64 23 9 0
0 0 0 0 0 0 0 0 0 0 0 0 0 0 0 0 0 0 0 0 0 0 0 0 0 0 0 15 43 42 17 12 100 20 0 9 0 0 0 31 128 0 43 67 47
0 0 0 0 0 0 0 0 0 0 0 0 0 0 0 0 0 0 0 0 0 0 0 0 0 0 0 0 23 28 44 22 37 17 13 0 0 0 0 0 0 0 5 35 144
0 0 0 0 0 0 0 0 0 0 0 0 0 0 0 0 0 0 0 0 0 0 0 0 0 0 0 0 0 0 39 30 37 33 3 0 0 0 0 0 0 0 0 47 142
0 0 0 0 0 0 0 0 0 0 0 0 0 0 0 0 0 0 0 0 0 0 0 0 0 0 0 0 0 2 37 27 6 3 0 2 2 0 0 10 0 0 0 68 209
0 0 0 0 0 0 0 0 0 0 0 0 0 0 0 0 0 0 0 0 0 0 0 0 0 0 0 0 0 0 10 9 0 0 0 0 0 3 0 1 0 0 0 7 201
0 0 0 0 0 0 0 0 0 0 0 0 0 0 0 0 0 0 0 0 0 0 0 0 0 0 0 0 0 0 0 0 2 6 0 0 0 8 0 0 0 0 0 1 127
0 0 0 0 0 0 0 0 0 0 0 0 0 0 0 0 0 0 0 0 0 0 0 0 0 0 0 0 0 0 0 0 0 0 0 0 0 18 2 0 10 0 1 27 49
0 0 0 0 0 0 0 0 0 0 0 0 0 0 0 0 0 0 0 0 0 0 0 0 0 0 0 0 0 0 0 0 0 0 0 0 0 15 0 0 28 8 1 39 138
0 0 0 0 0 0 0 0 0 2 0 0 0 0 0 0 0 0 0 0 0 0 0 0 0 0 0 0 0 0 0 0 0 0 0 0 0 0 8 2 61 177 158 117 201
0 0 0 0 0 0 0 0 0 0 2 0 0 0 0 1 0 0 0 0 0 0 0 0 0 0 0 0 0 0 0 0 0 0 0 0 0 2 38 119 234 719 673 467 358
0 0 0 0 0 0 0 0 0 0 0 0 0 0 0 2 8 0 0 0 0 0 0 0 0 0 0 0 0 0 0 0 0 0 0 0 0 7 254 286 631 719 730 713 669
0 0 0 0 0 0 0 0 0 0 0 0 0 0 0 0 8 5 1 0 0 0 0 0 0 0 0 0 0 0 0 0 0 0 0 0 0 0 192 795 728 669 498 690 833
0 0 0 0 0 0 0 0 0 0 0 0 0 0 0 0 0 0 12 7 0 0 0 0 0 0 0 0 2 97 177 94 1 44 0 0 0 460 949 940 748 542 441 276 417
0 0 0 0 0 0 0 0 0 0 0 0 0 0 0 0 0 0 0 0 0 0 0 0 0 0 0 0 3 0 193 168 86 57 107 131 342 843 1109 879 720 672 629 550 608

GFSSW_con_mucape_237.txt.gz
CAPE
0 5 3 3 0 0 0 0 0 0 0 0 0 0 0 0 0 0 0 0 0 1326 846 64 168 754 587 540 493 36 100 116 108 226 488 47 39 6 0 0 3 7 25 19 122
0 0 0 0 1 1 1 0 0 0 0 0 0 0 0 0 0 0 0 114 492 1268 111 154 439 752 298 532 684 177 42 32 116 398 419 121 148 14 0 0 23 100 122 113 121
0 0 0 0 0 0 0 1 1 0 0 0 0 0 0 0 0 0 21 722 969 763 128 148 456 400 647 1020 817 353 14 17 105 463 325 246 169 38 0 0 0 28 126 109 133
2 2 2 1 1 0 0 0 0 0 0 0 0 0 0 0 0 0 707 978 1104 108 85 173 310 700 863 699 790 141 46 36 53 492 315 256 125 103 150 93 0 41 67 96 153
4 3 2 2 1 1 1 0 0 0 0 0 0 0 0 0 0 355 956 1010 379 21 24 101 365 669 207 41 142 262 40 51 93 336 214 180 294 169 237 47 5 80 106 94 127
4 4 3 2 1 1 0 0 0 0 0 0 0 0 0 0 0 323 317 415 215 7 0 110 202 188 78 12 77 144 117 441 426 310 141 215 151 128 93 29 49 88 102 98 127
0 0 0 0 0 0 0 0 0 0 0 0 0 0 0 0 0 0 16 110 30 54 0 0 13 37 0 160 176 191 419 467 460 203 146 51 61 23 12 0 48 71 72 83 150
0 0 0 0 0 0 0 0 0 0 0 0 0 0 0 0 0 0 0 0 0 0 0 0 0 11 31 289 228 158 151 167 291 213 185 105 111 73 18 5 22 72 66 70 114
0 0 0 0 0 0 0 0 0 0 0 0 0 0 0 0 0 0 0 0 0 0 0 0 0 9 115 331 29 71 43 89 113 296 326 200 87 137 56 1 11 9 31 17 41
0 0 0 0 0 0 0 0 0 0 0 0 0 0 0 0 0 0 0 0 0 0 0 0 0 6 0 55 0 0 9 62 12 151 242 422 282 88 96 57 142 10 0 0 1
0 0 0 0 0 0 0 0 0 0 0 0 0 0 0 0 0 0 0 0 0 0 0 0 0 0 0 12 0 28 0 0 0 100 128 167 149 68 177 60 162 32 0 0 0
0 0 0 0 0 0 0 0 0 0 0 0 0 0 0 0 0 0 0 0 0 0 0 0 0 0 0 3 16 6 24 0 71 111 45 1 6 0 69 111 154 76 10 5 0
0 0 0 0 0 0 0 0 0 0 0 0 0 0 0 0 0 0 0 0 0 0 0 0 0 0 0 3 20 22 12 14 1 114 44 3 0 0 40 208 281 169 70 4 0
0 0 0 0 0 0 0 0 0 0 0 0 0 0 0 0 0 0 0 0 0 0 0 0 0 0 0 0 2 41 30 31 57 20 0 16 0 0 0 235 370 339 123 56 4
0 0 0 0 0 0 0 0 0 0 0 0 0 0 0 0 0 0 0 0 0 0 0 0 0 0 0 0 0 9 48 22 35 14 10 18 2 0 0 0 318 359 292 145 86
0 0 0 0 0 0 0 0 0 0 0 0 0 0 0 0 0 0 0 0 0 0 0 0 0 0 0 0 0 11 61 31 21 1 1 0 0 0 1 2 4 320 262 188 130
0 0 0 0 0 0 0 0 0 0 0 0 0 0 0 0 0 0 0 0 0 0 0 0 0 0 0 0 0 0 37 22 6 6 0 0 1 0 0 0 5 37 169 15 109
0 0 0 0 0 0 0 0 0 0 0 0 0 0 0 0 0 0 0 0 0 0 0 0 0 0 0 0 0 0 0 6 0 0 0 1 0 0 0 0 0 0 1 0 0
0 0 0 0 0 0 0 0 0 0 0 0 0 0 0 0 0 0 0 0 0 0 0 0 0 0 0 0 0 0 0 0 0 0 0 0 0 0 0 0 0 0 0 8 13
0 0 0 0 0 0 0 0 0 0 0 0 0 0 0 0 0 0 0 0 0 0 0 0 0 0 0 0 0 0 0 0 0 0 0 0 0 0 4 1 6 40 2 25 59
0 0 0 0 0 0 0 0 0 0 0 0 0 0 0 0 0 0 0 0 0 0 0 0 0 0 0 0 0 0 0 0 0 0 0 0 0 0 19 7 0 3 49 64 221
0 0 0 0 0 0 0 0 0 0 0 0 0 0 0 0 0 0 0 0 0 0 0 0 0 0 0 0 0 0 0 0 0 0 0 0 0 0 3 4 32 210 220 136 416
0 0 0 0 0 0 0 0 0 0 0 0 0 0 0 0 0 0 0 0 0 0 0 0 0 0 0 0 0 0 0 0 0 0 0 0 0 0 202 488 727 919 985 588 571
0 0 0 0 0 0 0 0 0 0 0 0 0 0 0 0 0 1 0 5 1 0 0 0 0 0 0 0 0 0 0 0 0 0 0 0 0 0 0 243 986 1196 1128 1166 844
0 0 0 0 0 0 0 0 0 0 0 0 0 0 0 0 0 4 6 0 3 3 0 0 0 0 0 0 0 0 0 0 0 0 0 0 0 0 0 533 1182 1037 873 980 1073
0 0 0 0 0 0 0 0 0 0 0 0 0 0 0 0 0 0 11 5 0 0 1 1 0 0 0 0 0 0 1 0 0 0 0 0 0 233 1098 1069 687 557 573 748 811
0 0 0 0 0 0 0 0 0 0 0 0 0 0 0 0 0 0 0 0 2 0 0 3 1 0 0 0 131 64 309 90 12 12 10 0 67 667 686 425 334 387 431 435 706

GFSSW_con_mucape_240.txt.gz
CAPE
0 0 1 1 1 0 0 0 0 0 0 0 0 0 0 0 0 0 0 0 20 1162 638 24 273 932 371 844 386 32 643 629 220 411 619 172 202 15 5 0 0 15 0 0 52
0 0 0 0 0 1 1 1 0 0 0 0 0 0 0 0 0 0 0 0 919 1346 137 88 652 885 353 590 683 206 107 285 623 668 592 220 206 0 32 60 56 35 0 0 0
3 2 0 0 0 0 0 0 1 0 0 0 0 0 0 0 0 0 5 371 1047 1063 140 369 475 747 648 943 662 432 18 61 520 645 249 303 282 0 48 135 135 92 29 0 0
3 2 1 1 1 1 0 0 0 0 1 0 0 0 0 0 0 0 389 1017 1241 386 92 239 431 685 450 294 433 360 13 24 293 682 626 671 67 43 44 208 0 29 23 0 0
2 1 1 1 1 1 1 1 0 0 0 0 0 0 0 0 0 0 459 1103 475 73 19 28 55 114 98 39 113 409 154 146 340 628 656 545 361 347 501 10 0 0 1 0 0
0 0 0 0 0 0 1 2 0 0 0 0 0 0 0 0 0 0 1 181 72 0 0 0 0 50 54 95 233 243 300 453 532 694 617 723 624 595 384 28 16 0 4 36 1
0 0 0 0 0 0 0 0 0 1 0 0 0 0 0 0 0 0 0 0 0 0 0 0 0 1 0 271 358 431 633 695 764 537 463 370 363 289 447 93 37 4 0 50 31
0 0 0 0 0 0 0 0 0 0 0 0 0 0 0 0 0 0 0 0 0 0 0 0 0 0 0 304 377 350 440 382 828 570 511 362 326 166 122 147 76 14 1 27 67
0 0 0 0 0 0 0 0 0 0 0 0 0 0 0 0 0 0 0 0 0 0 0 0 0 0 7 310 105 204 168 89 197 516 527 410 367 535 202 256 358 97 30 10 60
0 0 0 0 0 0 0 0 0 0 0 0 0 0 0 0 0 0 0 0 0 0 0 0 0 0 35 103 53 21 67 45 16 146 308 536 361 493 327 199 567 249 67 5 20
0 0 0 0 0 0 0 0 0 0 0 0 0 0 0 0 0 0 0 0 0 0 0 0 0 4 7 5 57 11 61 60 0 49 200 273 280 284 488 279 325 481 144 43 18
0 0 0 0 0 0 0 0 0 0 0 0 0 0 0 0 0 0 0 0 0 0 0 0 0 0 2 8 45 34 59 68 9 56 85 14 12 45 201 491 436 659 284 81 2
0 0 0 0 0 0 0 0 0 0 0 0 0 0 0 0 0 0 0 0 0 0 0 0 0 0 2 7 62 55 41 86 57 28 33 16 43 3 7 371 401 779 470 236 11
0 0 0 0 0 0 0 0 0 0 0 0 0 0 0 0 0 0 0 0 0 0 0 0 0 0 0 2 5 77 58 47 29 43 68 4 78 41 104 364 534 658 535 383 203
0 0 0 0 0 0 0 0 0 0 0 0 0 0 0 0 0 0 0 0 0 0 0 0 0 0 0 0 10 27 90 54 44 53 36 11 2 72 87 253 466 667 656 558 438
0 0 0 0 0 0 0 0 0 0 0 0 0 0 0 0 0 0 0 0 0 0 0 0 0 0 0 0 4 23 39 29 31 66 64 25 6 23 49 59 215 588 714 601 640
0 0 0 0 0 0 0 0 0 0 0 0 0 0 0 0 0 0 0 0 0 0 0 0 0 0 0 0 1 21 66 59 53 74 58 58 0 20 4 0 24 309 704 621 657
0 0 0 0 0 0 0 0 0 0 0 0 0 0 0 0 0 0 0 0 0 0 0 0 0 0 0 0 0 4 27 52 34 36 35 50 0 0 0 0 0 66 399 575 537
0 0 0 0 0 0 0 0 0 0 0 0 0 0 3 0 0 0 0 0 0 0 0 0 0 0 0 0 0 0 3 1 37 51 29 40 1 0 0 0 0 42 107 503 423
0 0 0 0 0 0 0 0 0 0 0 6 14 0 38 0 3 0 0 0 0 0 0 0 0 0 0 0 0 0 0 0 3 1 0 27 9 49 11 0 3 0 3 127 352
0 0 0 0 0 0 0 0 0 0 0 0 17 44 56 59 33 11 1 0 0 0 0 0 0 0 0 0 0 0 0 0 0 0 12 13 6 0 5 0 0 2 4 58 183
0 0 0 0 0 0 0 0 0 0 0 0 0 0 16 16 50 38 29 0 0 0 0 0 0 0 0 0 0 0 0 0 0 0 0 2 2 17 3 7 121 285 740 369 224
0 0 0 0 0 0 0 0 0 0 0 0 0 0 0 0 38 65 24 0 0 0 0 0 0 0 0 0 0 0 0 0 0 0 3 0 0 0 64 168 407 1132 1464 609 512
0 0 0 0 0 0 0 0 0 0 0 0 0 0 0 0 8 13 0 2 0 0 0 0 0 0 0 0 0 0 0 0 0 0 0 0 0 2 0 0 301 1180 1698 1410 957
0 0 0 0 0 0 0 0 0 0 0 0 0 0 0 0 0 0 4 0 12 0 2 0 2 0 0 0 0 0 0 0 0 0 0 0 0 0 0 0 1133 1354 1687 1800 1649
0 0 0 0 0 0 0 0 0 0 0 0 0 0 0 0 0 0 0 7 1 27 1 3 76 0 0 0 0 0 0 0 0 0 0 0 0 0 352 666 886 1174 1349 1582 1486
0 0 0 0 0 0 0 0 0 0 0 0 0 0 0 0 0 0 0 0 0 1 33 19 84 91 13 2 0 0 0 0 0 0 0 0 0 3 760 468 239 332 365 387 655

GFSSW_con_mucape_243.txt.gz
CAPE
0 1 1 1 1 0 0 0 0 0 0 0 0 0 0 0 0 0 0 0 32 1001 224 654 210 893 794 975 585 448 650 663 694 497 728 439 228 23 0 11 5 1 0 0 13
0 0 0 0 0 1 1 1 0 0 0 0 0 0 0 0 0 0 0 951 540 954 167 190 758 1258 739 696 824 734 695 535 661 663 570 510 264 27 7 0 0 0 0 0 3
1 1 1 1 0 0 0 0 0 1 0 0 0 0 0 0 0 0 0 1011 802 849 84 245 599 904 488 890 374 511 246 443 692 995 516 450 169 113 257 289 13 0 0 0 0
1 1 1 1 1 0 0 0 0 0 0 0 0 0 0 0 0 36 40 948 955 147 241 355 454 556 1055 306 42 300 96 407 792 801 741 661 550 197 510 46 4 0 0 0 0
1 0 0 0 0 0 0 1 1 0 0 0 0 0 0 0 0 70 371 838 104 156 12 139 387 57 58 40 123 408 86 273 474 702 908 840 693 670 505 0 0 0 0 0 0
0 0 0 1 0 1 1 1 0 0 0 0 0 0 0 0 0 0 0 23 0 35 0 5 0 0 67 71 211 447 294 397 501 730 788 774 811 627 406 0 0 0 0 0 0
0 0 0 0 0 0 1 0 0 0 0 0 0 0 0 0 0 0 0 0 0 0 0 0 0 0 37 82 276 228 402 492 557 642 632 576 629 414 432 24 0 0 0 0 0
1 1 2 0 0 0 0 0 0 0 0 0 0 0 0 0 0 0 0 0 0 0 0 0 0 0 0 133 345 207 288 314 482 463 604 401 423 914 601 270 0 0 1 7 5
1 2 0 0 0 0 0 0 0 0 0 0 0 0 0 0 0 0 0 0 0 0 0 0 0 0 0 37 182 167 72 481 480 223 721 407 559 795 489 471 44 0 0 3 11
5 0 0 0 0 0 0 0 0 0 0 0 0 0 0 0 0 0 0 0 0 0 0 0 0 0 0 66 107 119 122 20 235 124 174 330 316 566 399 326 300 11 0 3 9
0 0 0 0 0 0 0 0 0 0 0 0 0 0 0 0 0 0 0 0 0 0 0 0 0 0 4 29 58 49 62 85 60 32 211 199 285 490 482 198 355 156 1 0 6
0 0 0 0 0 0 0 0 0 0 0 0 0 0 0 0 0 0 0 0 0 0 0 0 0 0 0 17 42 38 61 84 35 27 59 200 112 110 690 476 209 329 33 1 0
0 0 0 0 0 0 0 0 0 0 0 0 0 0 0 0 0 0 0 0 0 0 0 0 0 0 3 9 40 86 83 85 83 60 42 31 34 39 171 572 572 553 445 173 0
0 0 0 0 0 0 0 0 0 0 0 0 0 0 0 0 0 0 0 0 0 0 0 0 0 0 0 3 25 68 88 78 10 56 54 78 60 138 106 370 627 791 597 373 114
0 0 0 0 0 0 0 0 0 0 0 0 0 0 0 0 0 0 0 0 0 0 0 0 0 0 0 0 10 29 53 98 96 63 71 78 25 72 226 190 523 561 919 540 615
0 0 0 0 0 0 0 0 0 0 0 0 0 0 0 0 0 0 0 0 0 0 0 0 0 0 0 0 0 8 18 42 79 64 85 86 91 111 302 281 316 593 592 853 599
0 0 0 0 0 0 0 0 0 0 0 0 0 0 0 0 0 0 0 0 0 0 0 0 0 0 0 3 4 6 40 64 88 70 53 78 77 84 55 42 175 482 773 776 757
0 0 0 0 0 0 0 0 0 0 0 0 0 0 0 2 0 0 0 0 0 0 0 0 0 0 0 0 3 1 30 60 92 75 59 67 49 79 33 35 28 269 652 670 627
0 0 0 0 0 0 0 0 0 0 0 0 0 2 1 29 7 3 0 0 0 0 0 0 0 0 0 0 0 0 3 1 79 85 80 72 62 73 39 0 41 97 408 731 546
0 0 0 0 0 0 0 0 0 0 0 0 0 0 14 56 73 61 26 3 4 1 0 0 0 0 0 0 0 0 0 33 54 85 84 87 43 92 67 24 10 121 206 556 707
0 0 0 0 0 0 0 0 0 0 0 0 0 0 11 28 91 104 57 60 13 0 3 0 0 0 2 1 0 0 15 40 27 32 59 85 90 62 68 89 40 35 28 140 632
0 1 0 0 0 0 0 0 0 0 0 0 0 0 10 19 25 136 87 51 0 5 0 0 0 0 6 0 0 1 5 12 26 6 19 54 91 56 131 93 26 73 488 266 158
0 0 0 0 0 5 0 0 0 0 0 0 0 0 0 6 38 82 215 52 4 0 24 127 9 0 0 18 3 0 0 0 9 24 51 50 34 101 115 112 154 688 1067 835 527
0 0 0 0 0 0 0 0 0 0 0 0 0 0 0 0 7 65 158 63 0 0 5 54 0 5 0 1 0 0 0 0 0 8 12 38 56 150 164 275 288 1044 1656 1126 774
0 0 0 0 0 0 0 0 0 0 0 0 0 0 0 0 36 38 57 64 6 22 40 63 55 4 0 0 1 0 0 0 0 0 1 14 54 84 88 698 915 1183 1575 1710 1247
0 0 0 0 0 0 0 0 0 0 0 0 0 0 0 0 20 15 19 8 54 82 38 83 138 96 41 0 0 0 0 0 0 0 0 2 35 40 438 1087 1060 1185 1596 2152 1779
0 0 0 0 0 0 0 0 0 0 0 0 0 0 0 0 0 0 0 0 0 2 22 6 60 263 145 54 41 3 0 0 0 0 0 0 0 150 1628 727 526 664 538 303 530

GFSSW_con_mucape_246.txt.gz
CAPE
1 2 1 1 1 0 0 0 0 0 0 0 0 0 0 0 0 0 0 0 9 651 592 868 405 813 897 874 352 483 463 398 479 500 270 77 40 0 0 0 16 4 0 0 6
0 0 0 0 0 0 0 1 0 0 0 0 0 0 0 0 0 0 0 842 310 782 288 495 485 776 754 305 246 633 22 16 469 543 470 304 14 0 0 4 0 0 0 0 2
2 1 1 0 0 0 0 0 0 1 1 0 0 0 0 0 0 0 125 894 705 580 0 154 449 597 332 378 203 505 84 513 654 449 493 164 125 154 28 0 0 0 0 0 0
1 0 0 0 0 0 0 0 1 0 0 0 0 0 0 0 0 0 775 1024 844 11 97 130 208 138 385 383 10 410 97 727 559 419 640 651 330 370 205 9 0 0 0 0 1
0 0 0 0 0 0 1 1 1 1 0 0 0 0 0 0 0 0 416 875 32 0 136 222 90 273 43 38 28 350 313 257 736 716 804 604 490 784 11 0 0 0 0 0 4
0 0 0 0 1 1 1 1 1 0 0 0 0 0 0 0 0 0 0 0 0 0 0 0 11 17 28 11 160 225 220 338 649 800 576 411 517 822 12 0 0 0 0 0 2
0 1 2 0 0 1 0 0 0 0 0 0 0 0 0 0 0 0 0 0 0 0 0 0 0 0 0 5 105 137 301 485 401 337 305 487 448 621 18 0 0 0 0 0 0
3 2 2 0 0 0 0 0 0 0 0 0 0 0 0 0 0 0 0 0 0 0 0 0 0 0 0 7 31 190 243 312 302 348 490 412 416 531 98 2 0 0 0 0 0
4 4 0 0 0 0 0 0 0 0 0 0 0 0 0 0 0 0 0 0 0 0 0 0 0 0 0 4 75 125 305 407 153 88 644 138 652 542 366 12 1 0 0 0 0
0 0 0 0 0 0 0 0 0 0 0 0 0 0 0 0 0 0 0 0 0 0 0 0 0 0 0 0 5 140 208 326 276 106 425 119 643 740 506 344 5 0 0 2 0
0 0 0 0 0 0 0 0 0 0 0 0 0 0 0 0 0 0 0 0 0 0 0 0 0 0 0 0 0 127 44 27 304 240 171 102 813 773 481 257 214 0 0 1 3
0 0 0 0 0 0 0 0 0 0 0 0 0 0 0 0 0 0 0 0 0 0 0 0 0 0 0 0 0 13 1 15 24 50 19 66 143 669 576 298 494 80 3 0 9
0 0 0 0 0 0 0 0 0 0 0 0 0 0 0 0 0 0 0 0 0 0 0 0 0 0 0 0 1 6 26 20 64 63 19 14 192 346 662 486 498 397 101 1 8
0 0 0 0 0 0 0 0 0 0 0 0 0 0 0 0 0 0 0 0 0 0 0 0 0 0 0 0 0 8 18 55 69 92 149 53 0 28 439 506 548 552 300 15 5
0 0 0 0 0 0 0 0 0 0 0 0 0 0 0 0 0 0 0 0 0 0 0 0 0 0 0 0 0 1 9 63 49 45 68 57 126 103 135 404 654 691 533 363 99
0 0 0 0 0 0 0 0 0 0 0 0 0 0 0 0 0 0 0 0 0 0 0 0 0 0 0 0 0 0 0 11 68 62 48 57 42 44 301 209 446 919 996 731 516
0 0 0 0 0 0 0 0 0 0 0 0 0 0 0 0 0 0 0 0 0 0 0 0 0 0 0 0 0 2 9 11 42 65 37 45 27 191 107 245 207 437 1089 957 503
0 0 0 0 0 0 0 0 0 0 0 0 0 0 0 0 0 0 0 0 0 0 0 0 0 0 0 0 0 8 8 45 54 69 70 89 29 71 124 153 90 422 696 1127 753
0 0 0 0 0 0 0 0 0 0 0 0 0 0 0 0 0 0 0 1 0 0 0 0 0 0 0 0 0 0 56 0 23 46 78 41 37 94 50 13 41 303 639 1066 1084
0 0 0 0 0 0 0 0 0 0 0 0 0 0 0 0 0 6 25 11 35 9 21 0 0 0 0 0 0 1 5 41 32 41 49 48 134 13 196 16 7 34 565 893 867
0 0 0 0 0 0 0 1 0 0 0 0 0 0 0 0 0 0 12 25 23 33 2 6 0 0 0 0 0 11 1 3 25 9 31 115 57 138 451 85 27 67 612 1036 1012
0 0 0 0 0 0 0 0 0 0 0 0 0 0 0 0 0 0 0 66 2 11 0 25 17 6 0 0 0 2 0 0 27 47 35 41 35 140 173 65 62 34 398 515 891
0 0 0 0 0 0 0 0 0 0 0 0 0 0 0 0 0 0 0 53 18 0 0 0 34 16 0 0 0 13 8 3 0 15 148 98 1 162 32 95 641 581 406 635 558
0 0 1 0 0 0 0 0 0 0 0 0 0 0 0 0 0 0 0 1 82 11 3 0 4 31 6 0 0 28 16 2 7 53 38 25 10 268 267 36 325 1143 1211 748 2005
0 0 0 0 1 0 0 0 0 0 0 0 0 0 0 0 0 0 0 7 46 199 5 55 62 8 1 0 0 0 7 5 1 1 15 18 38 119 696 903 1441 1264 2266 2378 2246
0 0 0 0 0 0 0 0 0 0 0 0 0 0 0 0 0 0 0 2 58 52 0 118 170 132 64 0 0 0 0 12 0 0 0 2 4 544 1555 1346 1869 2150 2036 1751 1325
0 0 0 0 0 0 0 0 0 0 0 0 0 0 0 0 0 0 0 0 0 0 13 52 54 78 48 17 7 0 0 0 0 0 0 0 25 1700 1694 1560 1399 1101 991 872 1004